Regional Weather Roundup
Issued by NWS

Home | Current Version | Previous Version | Graphics & Text | Print | Product List | Glossary On
Versions: 1 2 3 4 5 6 7 8 9 10 11 12 13 14 15 16 17 18 19 20 21 22 23 24 25 26 27 28 29 30 31 32 33 34 35 36 37 38 39 40 41 42 43 44 45 46 47 48 49 50
000
ASUS43 KDTX 030610
RWRMI
MICHIGAN HOURLY REGIONAL WEATHER ROUNDUP
NATIONAL WEATHER SERVICE DETROIT/PONTIAC MI
100 AM EST TUE MAR 03 2015

NOTE: "FAIR" INDICATES FEW OR NO CLOUDS BELOW 12,000 FEET WITH NO
SIGNIFICANT WEATHER AND/OR OBSTRUCTION TO VISIBILITY.

MIZ047>049-052>055-059>063-066>070-074>076-081>083-030700-
SOUTHEAST LOWER MICHIGAN

CITY           SKY/WX    TMP DP  RH WIND       PRES   REMARKS
ADRIAN         CLOUDY    21  14  74 SW5       30.33F WCI  15
6HR MIN TEMP:  17; 6HR MAX TEMP:  24;

ALMA           FAIR      23  16  74 SW5       30.30F WCI  16
ANN ARBOR      MOCLDY    21  14  74 S6        30.32F WCI  13
BAD AXE        FAIR      13   8  81 S3        30.31R
CARO           FAIR      17  10  74 CALM      30.31S
DETROIT CITY   FAIR      24  14  65 S6        30.33F WCI  17
6HR MIN TEMP:  20; 6HR MAX TEMP:  30;

DETROIT        CLOUDY    23  15  71 S8        30.34F WCI  14
6HR MIN TEMP:  22; 6HR MAX TEMP:  29;

FLINT          FAIR      22  12  65 S6        30.31F WCI  14
6HR MIN TEMP:  13; 6HR MAX TEMP:  27;

GROSSE ILE     MOCLDY    23  18  80 SW6       30.33S WCI  16
HILLSDALE      CLOUDY    23  15  71 S5        30.28F WCI  17
6HR MIN TEMP:  17; 6HR MAX TEMP:  23;

HOWELL         MOCLDY    24  13  64 S5        30.29S WCI  18
6HR MIN TEMP:  19; 6HR MAX TEMP:  26;


CITY           SKY/WX    TMP DP  RH WIND       PRES   REMARKS
JACKSON        CLOUDY    23  14  68 S8        30.30F WCI  14
6HR MIN TEMP:  22; 6HR MAX TEMP:  26;

LAMBERTVILLE   CLOUDY    25  16  68 CALM      30.34F
LANSING        MOCLDY    24  14  65 S6        30.30F WCI  17
6HR MIN TEMP:  22; 6HR MAX TEMP:  25;

LAPEER         FAIR      18  10  68 CALM      30.30F
MASON          CLOUDY    24  15  67 CALM      30.29F
MONROE         FAIR      23  16  74 SW3       30.33F
MT. CLEMENS    CLOUDY    16  11  83 SE2       30.31F
6HR MIN TEMP:  11; 6HR MAX TEMP:  25;

PONTIAC        FAIR      22  13  68 SE3       30.29F
6HR MIN TEMP:  16; 6HR MAX TEMP:  26;

PORT HOPE        N/A     15   7  70 SW5       30.29F WCI   8
6HR MIN TEMP:  13; 6HR MAX TEMP:  24;

PORT HURON     FAIR      18  12  79 CALM      30.34S
TRI CITIES     FAIR      22  13  68 S8        30.31S WCI  12
6HR MIN TEMP:  20; 6HR MAX TEMP:  26;

TROY           FAIR      26  14  60 S3        30.33F
SAGINAW HB     FAIR      23  14  68 S6        30.31S WCI  16
$$
MIZ043>046-050>051-056>058-064>065-071>073-077>080-030700-
SOUTHWEST LOWER MICHIGAN

CITY           SKY/WX    TMP DP  RH WIND       PRES   REMARKS
BATTLE CREEK   CLOUDY    25  15  66 S5        30.28F WCI  19
6HR MIN TEMP:  21; 6HR MAX TEMP:  27;

BENTON HARBOR  CLOUDY    25  15  66 S7        30.27F WCI  17
6HR MIN TEMP:  19; 6HR MAX TEMP:  25;

BIG RAPIDS     CLOUDY    21  13  71 CALM      30.25F
6HR MIN TEMP:  15; 6HR MAX TEMP:  24;

COLDWATER      CLOUDY    24  14  65 S5        30.28F WCI  18
6HR MIN TEMP:  16; 6HR MAX TEMP:  24;

FREMONT        CLOUDY    22  13  67 CALM      30.26F
HOLLAND        CLOUDY    24  15  68 SE6       30.27F WCI  17
6HR MIN TEMP:  21; 6HR MAX TEMP:  24;

GRAND RAPIDS   CLOUDY    23  15  71 S6        30.27F WCI  16
6HR MIN TEMP:  22; 6HR MAX TEMP:  24;

IONIA          CLOUDY    24  16  71 S3        30.28F
KALAMAZOO      CLOUDY    25  15  66 S5        30.27F WCI  19
6HR MIN TEMP:  21; 6HR MAX TEMP:  25;

LUDINGTON      CLOUDY    22  15  72 SE3       30.25F
6HR MIN TEMP:  14; 6HR MAX TEMP:  22;

MARSHALL       CLOUDY    23  14  68 CALM      30.28F
MOUNT PLEASANT CLOUDY    23  13  65 S3        30.28F
6HR MIN TEMP:  20; 6HR MAX TEMP:  26;

MUSKEGON       CLOUDY    24  16  71 S5        30.27F WCI  18
6HR MIN TEMP:  21; 6HR MAX TEMP:  24;

SOUTH HAVEN    CLOUDY    26  16  66 CALM      30.27F
$$
MIZ016>042-030700-
NORTHERN LOWER MICHIGAN

CITY           SKY/WX    TMP DP  RH WIND       PRES   REMARKS
ALPENA         FAIR      -1  -8  72 CALM      30.28F
6HR MIN TEMP:  -1; 6HR MAX TEMP:  23;

BEAVER ISLAND  FAIR      14   8  78 S6        30.23F WCI   5
6HR MIN TEMP:   9; 6HR MAX TEMP:  19;

BELLAIRE       FAIR      -1  -4  83 CALM      30.27F
6HR MIN TEMP:  -2; 6HR MAX TEMP:  17;

CADILLAC       FAIR      16   8  72 S5        30.21F WCI   9
CHARLEVOIX     FAIR       2  -1  85 CALM      30.27F
6HR MIN TEMP:   1; 6HR MAX TEMP:  18;

FRANKFORT      MOCLDY    19  13  79 SE3       30.24F
GAYLORD        FAIR      -5  -9  83 CALM      30.21F
6HR MIN TEMP:  -7; 6HR MAX TEMP:  13;

GRAYLING       FAIR      -4 -10  79 CALM      30.24F
HARBOR SPRINGS FAIR       0  -3  85 NE3       30.24F
HOUGHTON LAKE  FAIR       7   0  73 CALM      30.25S
6HR MIN TEMP:   2; 6HR MAX TEMP:  19;

MANISTEE       MOCLDY    19  10  68 SE3       30.25F
OSCODA         FAIR       3  -4  72 CALM      30.28S
PELLSTON       FAIR      -8 -12  83 CALM      30.25F
6HR MIN TEMP:  -8; 6HR MAX TEMP:  18;

ROGERS CITY    FAIR       1  -2  86 S5        30.27F WCI  -8
TRAVERSE CITY  FAIR       9   4  80 S3        30.25F
6HR MIN TEMP:   4; 6HR MAX TEMP:  17;

$$
MIZ007>008-015-030700-
EASTERN UPPER MICHIGAN

CITY           SKY/WX    TMP DP  RH WIND       PRES   REMARKS
KINROSS        FAIR       3   1  92 SE7       30.23S WCI  -9
6HR MIN TEMP:   3; 6HR MAX TEMP:  12;

MACKINAC ISLAN FAIR      12   4  71 S8        30.23F WCI   0
6HR MIN TEMP:  12; 6HR MAX TEMP:  18;

NEWBERRY       FAIR      10   7  88 S9        30.18F WCI  -3
S. S. MARIE    FAIR       2  -3  80 E3        30.23F
6HR MIN TEMP:   2; 6HR MAX TEMP:  13;

MUNISING         N/A     19   8  62 S10       30.16F WCI   7
6HR MIN TEMP:   9; 6HR MAX TEMP:  20;

$$
MIZ004>006-011>014-085-030700-
CENTRAL UPPER MICHIGAN

CITY           SKY/WX    TMP DP  RH WIND       PRES   REMARKS
MANISTIQUE     CLOUDY    20  17  87 S9        30.18F WCI  10
6HR MIN TEMP:  19; 6HR MAX TEMP:  22;

ESCANABA       FAIR      19  16  86 S8        30.19F WCI   9
6HR MIN TEMP:  16; 6HR MAX TEMP:  21;

MENOMINEE      CLOUDY    21  12  68 S8        30.18F WCI  12
6HR MIN TEMP:  19; 6HR MAX TEMP:  23;

SAWYER-GWINN   FAIR      11   5  76 S8        30.11F WCI   0
$$
MIZ001>003-009>011-084-030700-
WESTERN UPPER MICHIGAN

CITY           SKY/WX    TMP DP  RH WIND       PRES   REMARKS
IRON MOUNTAIN  FAIR      18   6  59 SE5       30.10F WCI  11
6HR MIN TEMP:  14; 6HR MAX TEMP:  25;

HOUGHTON       FAIR      14   3  61 SW6       30.06F WCI   5
6HR MIN TEMP:   2; 6HR MAX TEMP:  15;

COPPER HARBOR    N/A     15   8  73 W6        30.08F WCI   6
6HR MIN TEMP:  11; 6HR MAX TEMP:  20;

IRONWOOD       CLOUDY    19   3  49 S8        30.00F WCI   9
6HR MIN TEMP:  18; 6HR MAX TEMP:  25;

$$

ABBREVIATIONS USED IN REMARKS
   TC - TEMPERATURE IN CELSIUS
  WCI - WIND CHILL INDEX
   HX - HEAT INDEX
  VSB - VISIBILITY



USA.gov is the U.S. government's official web portal to all federal, state and local government web resources and services.